Flag for Canada Weather past 2 weeks in Surrey, British Columbia, Canada

Now
57 °F

Cool.


Feels Like: 57 °F
Forecast: 55 / 64 °F
Wind: 2 mph from East

Location: P. Meadows Coastal Station

Current Time: Aug 5, 2015 at 5:36:07 AM

Latest Report: Aug 5, 2015 at 5:00 AM


Visibility: N/A

Pressure: 30.00 "Hg

Humidity: 83%

Dew point: 52 °F

Location of SurreyLocation

Historic Weather in Surrey — Graph

°F

Surrey temperature yesterday

Maximum temperature yesterday: 76 °F (at 3:00 PM)
Minimum temperature yesterday: 60 °F (at 6:00 AM)
Average temperature yesterday: 68 °F

Past Weeks' High & Low Weather Summary

 TemperatureHumidityPressure
High91 °F (Jul 30, 5:00 PM)98% (Jul 30, 5:00 AM)30.29 "Hg (Jul 30, 5:00 AM)
Low53 °F (Jul 23, 5:00 AM)20% (Jul 29, 5:00 PM)29.85 "Hg (Aug 3, 3:00 AM)
Average67 °F66%30.02 "Hg
* Reported Jul 21 4:00 AM — Aug 5 4:00 AM, Surrey, Weather by CustomWeather, © 2015

Note: Actual official high and low records may vary slightly from our data, if they occured in-between our weather recording intervals... More about our weather records

Advertising

Surrey weather history for previous 24 hours

 ConditionsComfort  
Time TempWeatherWind HumidityBarometerVisibility
4:00 AM
Wed, Aug 5
58 °FCool.2 mph84%30.00 "HgN/A
3:00 AM60 °FCool.3 mph76%29.99 "HgN/A
2:00 AM59 °FCool.No wind77%29.98 "HgN/A
1:00 AM60 °FCool.No wind71%29.98 "HgN/A
12:00 AM60 °FCool.2 mph72%29.97 "HgN/A
11:00 PM
Tue, Aug 4
63 °FMild.3 mph64%29.96 "HgN/A
10:00 PM68 °FMild.3 mph59%29.96 "HgN/A
9:00 PM69 °FMild.2 mph57%29.95 "HgN/A
8:00 PM71 °FMild.3 mph51%29.93 "HgN/A
7:00 PM74 °FMild.5 mph47%29.94 "HgN/A
6:00 PM75 °FMild.6 mph43%29.95 "HgN/A
5:00 PM76 °FMild.7 mph34%29.96 "HgN/A
4:00 PM74 °FMild.7 mph42%29.96 "HgN/A
3:00 PM76 °FMild.6 mph36%29.97 "HgN/A
2:00 PM76 °FMild.6 mph41%29.98 "HgN/A
1:00 PM73 °FMild.6 mph46%29.98 "HgN/A
12:00 PM73 °FMild.6 mph48%29.98 "HgN/A
11:00 AM71 °FMild.5 mph59%29.98 "HgN/A
10:00 AM69 °FMild.5 mph66%29.98 "HgN/A
9:00 AM65 °FMild.2 mph72%29.99 "HgN/A
8:00 AM63 °FMild.5 mph77%29.98 "HgN/A
7:00 AM62 °FCool.5 mph80%29.97 "HgN/A
6:00 AM60 °FCool.3 mph83%29.96 "HgN/A
5:00 AM61 °FCool.3 mph82%29.95 "HgN/A
Weather by CustomWeather, © 2015

See weather overviewHow to use our weather pages